Temp
9 9 8 8 8 8 8 8 7 7 8 9 8 8 8 7 6 6 6 5 5 5 5 4 5 4 4 4 4 4 4 4 4 4 4 4 4 4 4 4 4 4 4 4 4 4 4 4 4 4 3 4 4 4 4 4 4 4 4 4 4 4 4 4 4 4 4 4 4 4 4 4 4 4 4 4 4 4 4 3 3 3 3 3 3 3
9 9 9 8 8 8 8 8 7 7 8 8 8 8 8 8 7 6 6 5 5 5 5 5 5 5 4 4 4 5 4 4 4 4 4 4 4 4 4 4 4 4 4 4 4 4 4 4 4 4 3 3 4 4 4 4 4 3 4 4 4 4 4 4 4 4 4 4 4 4 4 4 4 4 4 4 4 4 4 4 4 4 3 3 3 3
9 9 9 8 8 8 8 8 8 9 9 8 8 8 8 7 7 7 6 6 6 5 5 5 5 4 4 4 4 4 4 4 4 4 4 4 4 4 4 4 4 4 4 4 4 4 4 4 4 4 3 3 4 4 4 4 4 3 4 4 4 4 4 4 4 4 4 4 4 4 4 5 4 4 4 4 4 4 4 4 4 4 4 4 3 3
10 9 9 9 8 8 9 8 9 9 9 9 8 8 7 7 7 7 6 6 6 6 5 5 5 4 4 4 4 4 4 4 4 4 4 4 4 4 4 4 4 4 4 4 4 4 4 4 4 4 4 3 3 3 4 4 4 4 4 4 4 4 4 4 4 4 4 4 4 4 4 4 4 4 4 4 4 4 4 4 4 3 3 3 3 3
10 9 9 9 8 9 9 8 8 9 9 9 8 8 8 7 7 7 6 6 6 6 6 5 5 5 4 4 4 4 4 4 4 4 4 4 4 4 4 4 4 4 4 4 4 4 4 4 4 4 4 3 4 4 4 4 4 4 4 4 4 4 4 4 4 4 4 4 4 4 4 4 4 4 4 4 4 4 4 4 4 4 3 3 3 3
10 9 9 9 9 9 9 9 9 9 10 9 9 8 8 8 8 8 7 6 6 6 6 6 6 5 4 4 4 4 4 4 4 4 4 4 4 4 4 4 4 4 4 4 4 4 4 4 4 4 3 3 4 4 4 4 4 4 4 4 4 4 4 4 4 4 4 4 4 4 4 4 4 4 4 5 5 5 5 5 4 4 4 4 4 3
10 9 9 9 9 9 9 9 9 9 9 9 9 8 8 8 8 8 7 7 6 6 7 7 6 5 5 5 4 4 4 4 4 4 4 4 4 4 4 4 4 4 4 4 4 4 4 4 4 4 4 4 4 4 4 4 4 4 4 4 4 4 4 4 4 4 4 4 4 4 4 4 5 5 5 5 5 5 5 5 4 4 4 4 4 4
11 10 9 10 10 9 9 9 9 9 9 10 9 9 8 8 8 8 7 7 7 7 7 7 7 6 5 5 5 4 4 4 4 4 4 4 4 4 4 4 4 4 4 4 4 4 4 4 4 4 4 4 4 4 4 4 4 4 4 4 3 3 3 3 3 4 4 4 4 4 5 5 5 5 5 5 5 5 5 5 5 4 4 4 4 4
12 11 10 10 10 9 9 9 9 9 10 10 10 9 9 9 8 8 8 7 7 7 8 7 7 7 6 5 5 5 4 4 4 4 4 4 4 4 4 4 4 4 4 4 4 4 4 4 4 4 4 4 4 4 4 4 4 4 4 3 3 4 4 3 4 4 4 4 5 5 5 5 5 5 5 5 5 5 5 5 4 4 4 4 3 3
12 12 11 11 10 10 10 9 9 10 10 10 10 10 9 8 8 8 8 7 7 7 8 8 7 7 6 5 5 5 5 4 4 4 4 4 4 4 4 4 4 4 4 4 4 4 4 4 4 4 4 4 4 3 3 4 4 4 4 4 4 4 4 4 4 5 5 5 5 5 5 5 5 5 5 5 5 5 5 4 4 4 3 3 3 3
11 11 11 11 10 10 10 10 10 10 10 10 10 9 8 7 8 8 7 7 6 7 8 8 8 8 7 6 6 5 5 5 4 4 4 4 4 4 3 3 3 3 3 4 4 4 4 4 4 4 4 4 4 4 4 4 4 4 4 4 4 4 4 4 5 5 5 5 5 5 5 5 5 5 5 5 5 4 4 4 3 3 3 3 2 2
11 11 12 11 11 11 11 10 10 10 10 10 9 8 8 7 7 7 7 6 6 7 9 8 8 8 7 6 6 6 5 5 4 4 4 4 4 3 3 3 3 3 3 4 4 4 4 4 4 4 4 4 4 4 4 4 4 4 4 4 4 4 4 5 5 5 5 5 5 5 5 5 5 5 5 4 4 4 4 3 3 3 2 2 2 2
12 12 12 11 11 11 11 11 11 11 11 10 9 9 8 7 7 7 7 7 6 7 9 9 8 8 7 6 6 6 5 5 4 4 4 4 3 3 3 3 3 3 3 4 4 4 4 4 4 4 4 4 4 4 4 4 4 4 4 4 4 4 5 5 5 5 5 5 5 5 5 5 5 5 4 4 4 4 3 3 3 2 2 2 2 1
12 12 12 11 11 11 12 12 11 11 11 10 10 9 8 8 7 7 8 8 7 8 9 9 8 8 7 6 6 6 5 5 5 4 4 4 3 3 3 3 3 3 4 4 4 4 4 4 4 4 4 4 4 4 4 4 4 4 4 4 4 4 4 5 5 5 5 5 5 5 5 5 5 5 4 4 4 3 3 3 2 2 2 2 2 1
12 12 12 12 12 12 11 11 11 11 11 10 10 10 9 9 9 8 9 9 8 8 9 10 9 7 6 6 6 6 5 5 5 4 4 4 4 3 3 3 3 4 4 4 4 4 4 4 4 4 4 4 4 4 4 4 4 4 4 5 5 5 5 5 5 5 5 5 5 5 5 5 5 4 4 4 3 3 3 2 2 2 2 2 1 1
12 12 12 12 11 12 12 11 11 11 10 10 10 10 10 10 10 10 11 11 9 8 9 9 8 7 6 6 6 6 5 5 5 4 4 4 3 3 3 3 3 4 4 4 4 4 4 4 4 4 4 4 5 5 5 5 5 4 4 5 5 5 5 5 5 5 5 5 5 5 5 5 4 4 4 3 3 3 2 2 2 2 2 1 1 1
11 11 12 12 11 12 12 12 12 11 10 10 10 10 10 10 11 11 11 11 9 8 9 9 7 7 6 6 6 6 5 5 5 5 4 4 3 3 3 3 3 4 4 4 4 4 4 4 4 4 4 4 5 5 5 5 5 5 5 5 5 5 5 5 5 5 5 5 5 5 5 4 4 4 3 3 3 2 2 2 2 2 2 1 1 0
11 11 12 12 12 12 11 11 12 11 11 10 10 10 10 10 11 11 11 10 8 7 8 9 8 7 7 7 6 6 5 5 5 5 4 4 3 3 3 3 3 4 4 4 4 4 4 4 4 4 4 5 5 5 5 5 5 5 5 5 5 5 5 5 5 5 5 5 5 5 4 4 4 4 3 3 3 2 2 2 2 2 2 1 1 0
11 11 11 12 12 12 11 11 11 11 11 11 11 11 11 10 11 11 10 10 9 7 8 9 9 7 7 7 7 6 6 6 5 5 4 4 3 3 3 3 3 4 4 4 4 4 4 4 3 4 4 4 4 4 4 4 4 5 5 5 5 5 5 5 5 5 5 5 5 4 4 4 4 3 3 3 2 2 2 2 2 2 1 1 1 0
11 11 11 12 12 12 11 11 12 12 11 11 11 12 12 11 11 11 10 10 10 9 8 8 8 8 7 7 7 6 6 6 5 5 4 4 3 3 3 3 3 3 3 4 4 4 3 3 3 3 3 3 4 4 4 4 4 4 5 5 5 5 5 5 5 5 5 5 4 4 4 4 3 3 3 3 2 2 2 2 2 1 1 1 1 0
11 11 11 11 12 12 12 12 12 12 12 12 12 12 12 12 11 11 11 11 10 10 9 7 8 8 8 8 8 7 6 6 5 5 4 4 3 3 3 3 2 2 2 3 4 4 3 3 4 4 4 4 4 4 4 4 4 4 4 4 4 4 5 5 5 5 5 4 4 4 4 3 3 3 3 3 3 2 2 2 2 1 1 1 1 0
11 11 11 11 11 12 12 12 12 11 11 11 11 12 12 11 11 11 11 11 10 9 10 9 8 8 8 8 8 8 7 6 6 5 5 4 3 3 3 3 3 3 3 4 4 3 3 3 3 3 4 4 4 4 4 4 4 4 4 4 4 4 5 5 5 5 4 4 4 4 3 3 3 3 3 3 3 2 2 2 1 1 1 1 1 -0
10 11 11 11 11 11 11 11 12 11 11 11 12 12 12 11 11 11 11 10 10 10 11 10 8 7 8 8 8 7 7 6 6 5 5 4 4 3 3 3 3 4 4 4 4 3 3 3 3 3 3 3 4 4 4 4 4 4 4 4 4 5 5 5 4 4 4 4 4 3 3 3 3 3 3 3 3 2 2 2 1 1 1 1 0 -0
10 11 11 11 11 11 11 11 11 12 11 12 12 12 12 12 12 11 11 10 11 11 11 10 8 7 7 7 7 7 6 6 5 5 5 4 3 3 3 3 4 4 4 4 3 3 3 3 3 3 3 3 3 4 4 4 4 4 4 4 4 5 5 4 4 4 4 4 3 3 3 3 3 3 3 3 3 2 2 2 1 1 1 1 0 -0
10 10 10 10 10 9 9 10 11 11 11 12 12 12 12 12 12 11 11 11 11 10 10 9 7 7 7 7 7 7 6 6 5 5 4 4 4 3 3 3 4 4 4 4 3 3 3 3 3 3 3 3 3 4 4 4 4 4 4 4 4 5 4 4 4 4 4 3 3 3 3 3 4 3 3 3 3 2 2 2 1 1 1 1 0 -0
10 10 10 10 9 8 8 9 10 10 11 11 11 11 11 12 12 11 11 11 10 10 10 9 8 7 7 7 7 6 6 6 5 5 4 4 3 3 2 3 4 4 4 4 3 3 3 3 3 3 3 3 3 4 4 4 4 4 4 4 5 5 4 4 4 4 3 3 3 3 3 4 3 3 3 3 2 2 2 1 1 1 1 0 0 -0
10 10 9 10 9 9 9 10 9 10 10 10 11 11 11 12 11 11 11 10 10 10 9 8 8 8 7 7 7 6 6 5 5 4 4 3 3 2 2 3 4 4 4 3 3 3 3 3 3 3 3 3 4 4 4 4 4 4 4 4 5 4 4 4 4 3 3 3 3 3 3 3 3 3 3 2 2 2 2 1 1 1 1 0 0 -0
10 10 9 9 9 9 9 10 10 10 10 11 11 10 10 11 11 10 10 10 10 10 9 8 8 8 7 7 7 6 6 5 5 4 4 3 3 3 3 3 3 4 4 3 3 3 3 3 3 3 3 3 4 4 4 4 4 4 4 4 4 4 4 4 3 3 3 3 3 3 3 3 3 3 2 2 2 2 2 1 1 1 0 0 0 -1
10 10 9 9 9 9 10 10 11 11 11 11 11 11 10 11 11 10 10 10 10 10 9 9 8 8 8 7 7 6 6 5 5 5 4 3 3 3 3 2 2 2 3 3 3 3 3 3 3 3 3 3 4 4 4 4 4 4 4 4 4 4 4 3 3 3 3 3 3 3 3 3 3 2 2 2 2 2 2 1 1 1 0 0 -0 -1
9 9 9 9 9 9 10 10 10 11 11 11 11 11 11 11 11 10 10 10 10 9 9 9 9 8 8 8 7 6 6 5 5 4 4 3 3 3 2 2 2 1 2 3 2 2 3 3 3 3 3 4 4 4 4 4 4 4 4 4 4 4 4 3 3 3 3 3 3 3 3 3 2 2 2 2 2 2 1 1 1 1 0 0 -0 -1
9 9 9 9 9 9 10 10 11 11 11 11 11 12 11 11 11 11 10 10 9 9 9 9 8 8 8 8 7 6 6 5 5 4 4 3 3 3 2 2 2 1 1 2 2 2 2 3 3 3 3 4 4 4 4 4 4 4 4 4 4 4 3 3 3 3 3 3 3 3 3 3 2 2 2 2 2 2 1 1 1 0 0 0 -0 -1
9 9 9 9 9 10 10 11 11 11 11 11 11 11 11 11 11 10 10 9 9 9 8 8 8 8 8 7 7 6 6 6 5 4 4 3 3 3 3 2 2 1 1 2 2 2 2 3 3 3 3 4 4 4 4 4 4 4 4 4 4 3 3 3 3 3 3 3 3 3 3 3 3 2 2 2 2 2 1 1 1 0 0 0 -0 -1
9 9 9 10 10 10 10 10 11 10 11 11 11 11 11 11 11 10 10 9 9 8 8 8 8 8 7 7 7 6 6 6 5 4 4 3 3 3 3 2 2 1 2 2 2 2 2 2 3 3 3 3 4 4 4 4 4 4 4 4 4 3 3 3 3 3 3 3 3 3 3 3 2 2 2 2 2 2 1 1 1 0 0 -0 -0 -1
9 9 9 10 10 10 10 10 10 10 10 10 10 10 10 10 10 10 10 9 9 8 8 8 8 7 7 6 6 6 6 5 5 4 3 3 3 3 3 2 2 1 2 2 2 2 2 2 3 3 3 4 4 4 4 4 4 4 4 4 3 3 3 3 3 3 3 3 3 3 3 3 2 2 2 2 2 2 2 1 1 1 0 -0 -0 -1
9 9 9 10 10 10 10 9 9 9 10 10 9 9 9 10 10 9 9 9 9 8 8 8 7 7 7 6 6 6 5 5 4 4 4 3 3 3 3 2 2 2 2 2 2 2 2 3 3 3 3 4 4 4 4 4 4 4 4 4 3 3 3 3 3 2 3 3 3 3 3 2 2 2 2 2 2 2 2 1 1 1 0 -0 -0 -1
9 9 9 9 10 10 10 10 9 9 10 10 9 9 9 9 9 9 9 9 9 8 8 8 7 7 6 6 5 5 5 4 4 4 4 3 3 3 3 2 3 3 3 2 2 2 2 3 3 3 3 4 4 4 4 4 4 4 4 4 3 3 3 3 2 2 3 3 2 3 3 2 2 2 2 2 2 2 2 2 1 1 0 -0 -0 -1
9 9 9 9 9 10 10 11 10 10 10 9 9 9 9 9 8 8 8 8 9 8 8 7 7 6 6 6 5 5 5 4 4 4 4 3 3 3 2 3 3 3 2 2 2 2 3 3 3 3 3 4 4 4 4 4 4 4 3 3 3 3 3 3 2 2 2 2 2 2 2 2 2 2 2 2 2 2 2 2 1 1 0 -0 -0 -1
9 9 9 9 9 10 10 10 10 10 10 9 9 9 9 9 9 8 8 8 8 8 8 7 7 6 6 5 5 5 4 4 4 4 3 3 3 3 3 3 3 3 2 2 2 3 3 3 3 3 3 3 3 4 4 4 4 3 3 3 3 3 3 2 2 2 2 2 2 2 2 2 2 2 2 2 2 2 2 1 1 1 1 0 -0 -1
9 9 9 9 9 9 9 10 10 10 10 9 9 9 9 9 9 8 8 8 8 8 7 7 6 6 6 5 5 5 4 4 4 3 3 3 3 4 4 4 3 3 3 3 3 3 3 3 3 3 3 3 4 4 4 4 3 3 3 3 3 3 3 2 2 2 2 2 2 2 2 2 2 2 2 2 2 2 2 1 1 1 0 0 -0 -1
9 9 9 9 9 9 9 10 10 10 10 9 9 9 9 9 9 8 8 8 8 8 7 7 6 6 6 5 5 5 5 5 4 4 4 4 4 5 4 4 3 3 3 3 3 3 3 3 4 3 3 4 4 4 4 3 3 3 3 3 3 3 2 2 2 2 2 2 2 2 2 2 2 2 2 2 2 2 1 1 1 0 -0 -0 -1 -1
8 9 9 9 9 9 9 9 10 10 9 9 9 9 9 9 8 8 8 8 8 7 7 7 7 6 6 6 5 5 5 5 5 5 5 4 5 5 4 4 4 3 3 3 3 3 3 4 3 3 3 4 4 4 4 3 3 3 3 3 3 3 2 2 2 2 2 2 2 2 2 2 2 2 2 1 1 1 1 1 0 -0 -0 -1 -1 -1
8 8 8 9 9 9 9 10 10 9 8 8 8 8 9 9 8 8 8 7 7 7 7 7 7 7 6 6 5 5 5 5 5 5 5 5 5 5 4 4 4 3 3 3 3 3 4 3 3 4 4 4 4 3 3 3 3 3 3 3 3 2 2 2 2 2 2 2 2 2 2 2 2 2 1 1 1 1 1 1 0 -0 -1 -1 -1 -1
8 8 8 9 9 9 9 10 10 9 8 8 8 8 8 8 7 7 7 7 7 7 7 7 7 7 7 6 5 5 5 5 5 5 5 5 4 4 4 4 4 3 3 3 3 4 4 3 3 4 4 4 3 3 3 3 3 3 3 3 3 2 2 2 2 2 2 2 2 2 2 2 1 1 1 1 1 1 1 1 0 -0 -0 -1 -1 -1
8 8 8 9 9 9 9 9 9 8 8 8 8 8 7 7 7 7 7 7 7 7 7 7 7 7 6 5 5 5 5 5 5 5 5 5 5 4 4 4 3 3 3 3 4 4 3 3 3 4 4 3 3 3 3 3 3 3 3 3 2 2 2 2 2 2 2 2 2 1 1 1 1 1 1 1 1 1 1 0 0 0 -0 -1 -1 -1
7 8 8 8 8 9 9 9 8 8 8 8 8 7 7 8 7 7 7 6 6 6 6 6 7 7 6 5 6 6 6 5 5 5 5 5 4 4 4 4 3 4 4 4 4 4 4 4 4 4 4 3 3 3 3 3 3 3 3 3 2 2 2 2 2 2 2 2 2 1 1 1 1 1 1 1 1 1 0 0 0 -0 -0 -1 -1 -1
7 7 8 8 8 8 8 8 8 8 8 8 7 7 7 7 7 7 7 6 6 6 6 6 6 6 6 6 7 6 6 5 5 5 5 5 4 4 4 4 4 4 4 4 4 4 4 4 4 4 3 3 3 3 3 3 3 3 3 2 2 2 2 2 2 2 2 2 1 1 1 1 1 1 1 1 1 1 1 0 0 -0 -0 -1 -1 -1
7 7 7 8 8 8 8 8 8 7 7 7 7 7 7 7 7 7 7 6 6 7 6 6 6 6 6 6 7 6 6 6 5 5 5 5 5 4 4 4 4 4 4 4 4 4 4 4 4 3 3 3 3 3 3 3 2 2 2 2 2 2 2 2 2 2 1 1 1 1 1 1 1 1 1 1 1 1 1 0 0 -0 -0 -1 -1 -1
7 7 7 8 8 8 8 8 7 7 7 7 7 7 7 7 7 7 6 6 6 7 6 6 6 6 6 6 6 6 6 6 5 5 5 5 5 4 4 4 4 4 4 4 4 4 4 4 4 3 3 3 3 3 3 2 2 2 2 2 2 2 2 2 2 1 1 1 1 1 1 1 1 1 1 0 0 0 0 0 0 -0 -0 -1 -1 -2
6 7 7 8 8 8 8 7 7 7 7 7 6 6 6 7 7 7 6 6 7 7 6 6 6 6 6 6 6 6 6 6 5 5 5 5 5 4 4 4 4 4 4 4 4 4 4 4 3 3 3 3 3 3 2 2 2 2 2 2 2 2 2 2 1 1 1 1 1 1 1 1 0 0 0 0 0 -0 -0 -0 -0 -0 -1 -1 -1 -2
6 6 7 7 7 7 7 7 7 7 7 6 6 6 6 6 7 7 7 7 7 7 6 6 6 6 6 6 7 6 6 6 6 5 5 5 5 5 4 4 4 4 4 4 4 4 4 4 3 3 3 3 3 2 2 2 2 2 2 2 2 2 2 1 1 1 1 1 1 1 0 0 0 0 0 -0 -0 -0 -0 -0 -1 -1 -1 -1 -2 -2
6 6 6 7 7 7 7 7 7 7 6 6 6 6 6 6 7 7 7 6 6 6 6 6 6 6 6 6 7 6 6 6 6 5 5 5 5 5 5 4 4 4 4 4 4 4 4 4 3 3 3 3 3 2 2 2 2 2 2 2 2 1 1 1 1 1 1 1 1 0 0 0 -0 -0 -0 -0 -1 -1 -1 -1 -1 -1 -2 -2 -2 -3
Height
3168 3167 3166 3166 3165 3166 3167 3166 3167 3168 3169 3169 3170 3170 3171 3172 3173 3174 3174 3174 3174 3173 3174 3175 3175 3175 3175 3174 3175 3175 3174 3174 3173 3172 3172 3172 3172 3172 3171 3170 3170 3170 3171 3172 3172 3172 3172 3173 3172 3172 3172 3171 3171 3170 3169 3168 3167 3166 3165 3164 3163 3162 3161 3160 3159 3158 3157 3156 3155 3154 3152 3151 3150 3148 3146 3145 3143 3142 3140 3138 3137 3135 3134 3132 3130 3129
3168 3168 3168 3167 3167 3167 3167 3167 3168 3169 3170 3170 3170 3171 3172 3173 3174 3176 3175 3175 3174 3173 3175 3177 3175 3175 3175 3176 3176 3176 3176 3175 3175 3174 3173 3173 3173 3173 3172 3171 3171 3171 3172 3172 3172 3172 3172 3173 3173 3173 3172 3172 3171 3170 3169 3169 3168 3167 3166 3165 3164 3163 3162 3161 3159 3158 3157 3156 3154 3152 3151 3150 3148 3147 3145 3144 3142 3141 3139 3137 3136 3134 3132 3131 3129 3126
3168 3169 3169 3168 3168 3169 3169 3170 3170 3170 3170 3171 3171 3171 3173 3174 3175 3176 3176 3176 3176 3175 3177 3178 3176 3176 3177 3177 3178 3178 3177 3177 3176 3175 3175 3174 3174 3174 3173 3172 3172 3173 3173 3173 3172 3172 3173 3173 3173 3173 3173 3172 3172 3171 3170 3170 3168 3167 3167 3166 3165 3164 3163 3161 3159 3158 3157 3155 3153 3151 3150 3149 3147 3146 3144 3143 3141 3139 3138 3136 3134 3133 3131 3129 3127 3125
3168 3169 3170 3170 3169 3169 3170 3170 3171 3171 3171 3172 3172 3172 3174 3175 3176 3176 3177 3177 3177 3177 3178 3178 3178 3178 3179 3180 3179 3179 3179 3178 3178 3177 3176 3176 3175 3175 3174 3174 3174 3174 3174 3173 3173 3173 3174 3174 3174 3174 3173 3173 3172 3171 3171 3171 3170 3168 3168 3167 3165 3164 3163 3161 3160 3158 3156 3154 3153 3151 3150 3148 3146 3145 3143 3142 3140 3138 3137 3135 3133 3131 3129 3127 3124 3122
3168 3168 3169 3170 3169 3169 3170 3170 3171 3172 3172 3173 3173 3173 3174 3175 3176 3177 3177 3177 3178 3179 3178 3178 3178 3180 3181 3181 3181 3180 3180 3179 3179 3179 3178 3178 3177 3176 3176 3175 3175 3175 3174 3174 3174 3174 3175 3175 3175 3174 3174 3174 3173 3172 3172 3171 3170 3169 3167 3166 3165 3164 3163 3161 3160 3158 3156 3155 3153 3151 3149 3147 3146 3144 3142 3140 3139 3136 3134 3133 3131 3129 3127 3124 3122 3120
3168 3168 3170 3170 3170 3170 3171 3171 3171 3171 3172 3173 3173 3173 3174 3175 3177 3178 3178 3178 3180 3181 3179 3177 3179 3181 3182 3182 3182 3182 3181 3180 3180 3180 3179 3179 3179 3178 3177 3177 3176 3176 3176 3175 3175 3176 3176 3176 3175 3175 3174 3174 3173 3172 3171 3170 3170 3169 3168 3167 3166 3165 3163 3161 3159 3157 3155 3154 3152 3149 3147 3145 3143 3141 3139 3136 3134 3132 3130 3128 3126 3124 3122 3120 3118 3116
3167 3167 3169 3171 3171 3171 3171 3171 3171 3171 3171 3172 3172 3173 3175 3176 3177 3178 3178 3178 3179 3180 3179 3177 3178 3181 3183 3183 3183 3183 3182 3182 3181 3181 3181 3180 3180 3179 3179 3178 3177 3177 3177 3177 3177 3177 3177 3177 3176 3176 3175 3174 3174 3173 3172 3171 3170 3169 3168 3167 3165 3164 3162 3160 3158 3156 3154 3152 3150 3148 3146 3143 3141 3138 3136 3133 3131 3129 3127 3125 3123 3121 3119 3117 3115 3113
3168 3167 3168 3170 3171 3171 3171 3171 3171 3171 3171 3173 3173 3173 3175 3176 3177 3178 3178 3178 3178 3178 3178 3178 3178 3180 3183 3184 3184 3184 3183 3183 3182 3182 3182 3181 3181 3180 3180 3179 3179 3178 3178 3178 3178 3178 3178 3177 3177 3176 3176 3175 3174 3173 3173 3172 3170 3169 3167 3166 3164 3163 3161 3159 3157 3155 3153 3151 3149 3146 3144 3142 3139 3137 3135 3133 3130 3128 3126 3124 3122 3120 3119 3117 3114 3112
3169 3169 3168 3169 3171 3171 3170 3171 3171 3172 3172 3173 3174 3175 3176 3177 3178 3178 3179 3179 3179 3178 3178 3179 3179 3180 3183 3185 3185 3185 3185 3184 3184 3183 3183 3183 3182 3181 3181 3180 3180 3179 3179 3179 3179 3179 3178 3178 3177 3177 3176 3176 3175 3174 3173 3171 3170 3168 3167 3165 3164 3162 3160 3158 3156 3155 3152 3150 3148 3145 3143 3141 3138 3136 3134 3132 3130 3128 3126 3124 3122 3120 3118 3116 3114 3111
3168 3168 3168 3168 3170 3170 3169 3169 3171 3172 3173 3174 3176 3176 3175 3176 3177 3178 3179 3180 3180 3179 3178 3179 3179 3179 3182 3185 3185 3185 3185 3185 3185 3184 3184 3183 3183 3182 3182 3181 3180 3179 3179 3179 3179 3179 3179 3179 3178 3178 3177 3176 3175 3174 3172 3171 3169 3168 3167 3165 3163 3161 3159 3157 3156 3154 3152 3150 3147 3145 3142 3140 3137 3135 3133 3131 3129 3127 3125 3123 3121 3119 3117 3114 3112 3110
3167 3168 3168 3166 3168 3169 3168 3168 3170 3171 3173 3175 3175 3173 3174 3177 3179 3179 3181 3182 3181 3179 3178 3178 3178 3178 3181 3184 3184 3184 3185 3185 3184 3184 3184 3184 3184 3183 3183 3182 3181 3180 3180 3179 3179 3179 3179 3179 3179 3178 3177 3176 3174 3173 3172 3170 3168 3167 3165 3164 3162 3161 3159 3157 3156 3154 3152 3149 3146 3143 3141 3139 3136 3134 3133 3131 3129 3127 3124 3122 3120 3117 3115 3112 3110 3107
3167 3167 3167 3167 3167 3168 3168 3169 3171 3172 3173 3174 3174 3175 3179 3181 3180 3180 3181 3182 3181 3179 3177 3178 3178 3178 3180 3182 3183 3184 3184 3185 3184 3184 3184 3184 3185 3185 3185 3184 3183 3181 3180 3179 3179 3179 3179 3179 3179 3178 3177 3175 3174 3173 3171 3170 3168 3167 3165 3164 3162 3161 3159 3158 3155 3153 3150 3147 3145 3143 3140 3138 3136 3134 3132 3130 3128 3125 3123 3120 3117 3115 3112 3110 3107 3104
3166 3166 3167 3167 3168 3168 3169 3170 3171 3173 3173 3174 3175 3177 3180 3181 3180 3180 3179 3180 3181 3179 3177 3177 3178 3179 3181 3183 3183 3184 3184 3185 3185 3185 3185 3185 3185 3185 3185 3184 3183 3182 3181 3180 3179 3179 3179 3179 3178 3178 3177 3175 3174 3172 3171 3170 3169 3167 3166 3164 3163 3161 3159 3156 3154 3151 3148 3146 3144 3143 3141 3138 3136 3134 3131 3129 3126 3124 3121 3118 3116 3113 3110 3108 3105 3103
3165 3166 3166 3167 3167 3167 3169 3169 3170 3172 3172 3173 3174 3176 3177 3177 3179 3179 3177 3178 3180 3178 3177 3177 3178 3180 3183 3184 3184 3184 3184 3184 3185 3185 3185 3185 3185 3185 3185 3184 3183 3181 3181 3180 3180 3180 3179 3179 3178 3178 3177 3176 3175 3173 3172 3170 3169 3168 3166 3164 3163 3161 3158 3156 3153 3151 3148 3146 3144 3142 3140 3138 3136 3133 3131 3128 3125 3122 3120 3117 3115 3112 3109 3106 3104 3102
3165 3165 3165 3166 3166 3167 3169 3170 3171 3171 3172 3172 3173 3174 3175 3174 3175 3176 3173 3174 3177 3178 3177 3177 3178 3180 3183 3184 3184 3184 3184 3184 3185 3185 3185 3186 3186 3185 3185 3184 3182 3181 3181 3181 3180 3180 3180 3179 3178 3178 3177 3177 3176 3174 3173 3171 3169 3167 3165 3163 3162 3160 3158 3155 3153 3151 3149 3146 3144 3141 3139 3137 3135 3132 3130 3127 3125 3122 3120 3117 3114 3111 3109 3106 3103 3101
3165 3164 3165 3166 3166 3167 3168 3169 3170 3171 3172 3173 3173 3174 3174 3172 3173 3172 3171 3172 3174 3176 3176 3177 3178 3181 3183 3183 3184 3185 3185 3185 3186 3186 3186 3186 3186 3185 3184 3183 3182 3182 3181 3181 3180 3180 3179 3179 3178 3178 3177 3177 3175 3174 3172 3170 3169 3167 3164 3162 3161 3160 3158 3155 3153 3151 3148 3146 3143 3141 3139 3137 3135 3132 3130 3128 3125 3122 3120 3117 3114 3111 3108 3106 3103 3100
3165 3164 3165 3166 3167 3168 3168 3168 3170 3170 3172 3173 3173 3173 3173 3173 3172 3171 3171 3172 3173 3176 3177 3177 3179 3181 3182 3183 3185 3185 3185 3186 3186 3186 3186 3186 3186 3185 3184 3183 3182 3181 3181 3180 3180 3180 3179 3179 3178 3178 3177 3176 3174 3172 3170 3169 3167 3166 3164 3163 3161 3159 3158 3155 3153 3150 3148 3145 3143 3141 3139 3137 3135 3132 3130 3128 3125 3123 3120 3117 3114 3111 3108 3105 3103 3100
3166 3165 3166 3166 3166 3167 3167 3168 3169 3169 3170 3171 3171 3171 3172 3173 3171 3171 3171 3170 3173 3178 3178 3177 3179 3180 3181 3182 3184 3185 3185 3186 3186 3186 3186 3186 3185 3184 3184 3183 3181 3181 3180 3180 3180 3179 3179 3178 3178 3177 3175 3174 3172 3170 3169 3168 3166 3165 3164 3163 3161 3159 3157 3155 3153 3150 3147 3145 3143 3141 3139 3137 3134 3132 3130 3128 3125 3123 3120 3117 3114 3111 3108 3105 3102 3100
3165 3166 3166 3165 3165 3166 3167 3168 3168 3168 3168 3169 3170 3169 3170 3171 3170 3171 3171 3170 3173 3177 3177 3176 3178 3179 3180 3181 3182 3183 3184 3185 3186 3186 3186 3185 3185 3184 3183 3182 3181 3180 3180 3179 3179 3179 3179 3178 3177 3176 3174 3172 3171 3171 3170 3169 3167 3165 3164 3163 3161 3159 3156 3154 3152 3149 3147 3145 3143 3141 3139 3137 3135 3133 3130 3128 3126 3123 3120 3117 3114 3111 3108 3105 3102 3099
3165 3165 3165 3165 3165 3165 3166 3167 3166 3166 3166 3167 3168 3167 3167 3169 3169 3170 3171 3171 3173 3175 3176 3178 3178 3178 3179 3179 3180 3182 3182 3183 3184 3184 3185 3185 3184 3184 3182 3182 3181 3181 3180 3179 3179 3179 3179 3178 3177 3176 3175 3173 3172 3171 3171 3170 3168 3166 3165 3164 3162 3159 3156 3153 3151 3149 3147 3146 3144 3142 3140 3138 3136 3133 3131 3128 3126 3122 3119 3116 3113 3110 3107 3104 3101 3098
3164 3165 3165 3165 3165 3165 3165 3166 3165 3165 3166 3166 3167 3167 3167 3168 3169 3170 3170 3170 3172 3172 3174 3178 3178 3177 3178 3178 3179 3181 3181 3182 3182 3183 3184 3184 3183 3183 3182 3182 3181 3181 3180 3179 3179 3179 3178 3178 3177 3176 3175 3174 3173 3172 3171 3171 3169 3167 3165 3163 3161 3158 3155 3153 3151 3150 3148 3146 3144 3142 3140 3138 3136 3134 3131 3128 3125 3121 3118 3115 3112 3109 3107 3104 3100 3097
3164 3165 3166 3165 3165 3165 3164 3165 3165 3165 3166 3167 3167 3167 3167 3167 3168 3169 3169 3170 3172 3172 3172 3174 3176 3177 3178 3178 3179 3179 3180 3181 3182 3182 3183 3183 3183 3183 3182 3182 3181 3180 3180 3179 3179 3179 3178 3177 3176 3175 3173 3173 3173 3172 3171 3170 3169 3167 3165 3163 3160 3157 3155 3154 3152 3150 3148 3146 3145 3143 3140 3138 3136 3133 3130 3127 3123 3120 3117 3115 3112 3109 3106 3103 3100 3096
3165 3165 3166 3165 3166 3166 3165 3165 3166 3166 3166 3167 3167 3167 3168 3167 3168 3169 3169 3170 3171 3171 3170 3170 3173 3177 3178 3178 3178 3179 3180 3181 3181 3182 3183 3183 3183 3182 3181 3181 3180 3179 3179 3179 3179 3179 3178 3178 3177 3176 3174 3173 3172 3172 3171 3170 3169 3167 3165 3162 3159 3157 3156 3154 3152 3150 3149 3147 3145 3143 3141 3138 3136 3133 3129 3126 3123 3120 3117 3115 3112 3109 3106 3102 3099 3095
3166 3166 3166 3166 3166 3166 3166 3165 3166 3167 3167 3167 3167 3167 3167 3167 3167 3167 3169 3170 3170 3170 3171 3171 3174 3178 3178 3177 3178 3179 3181 3181 3181 3181 3182 3182 3181 3181 3180 3180 3179 3179 3179 3179 3179 3179 3178 3178 3177 3177 3176 3174 3172 3172 3171 3170 3169 3167 3165 3162 3160 3158 3156 3155 3153 3151 3149 3147 3145 3143 3141 3138 3135 3132 3129 3126 3123 3120 3117 3114 3111 3108 3105 3101 3098 3094
3166 3166 3166 3166 3166 3167 3167 3166 3166 3166 3166 3166 3166 3166 3166 3166 3166 3167 3168 3169 3170 3171 3171 3172 3175 3177 3177 3177 3178 3179 3181 3181 3181 3180 3181 3180 3180 3180 3180 3179 3179 3179 3179 3179 3179 3179 3179 3178 3177 3177 3176 3174 3173 3172 3171 3170 3168 3166 3164 3162 3160 3159 3157 3155 3153 3151 3149 3148 3146 3144 3141 3138 3134 3131 3129 3126 3123 3120 3117 3114 3111 3108 3104 3101 3098 3094
3166 3166 3167 3167 3167 3169 3170 3169 3168 3167 3167 3166 3166 3166 3166 3167 3167 3167 3168 3168 3170 3171 3171 3172 3174 3175 3176 3177 3178 3179 3180 3180 3180 3179 3179 3180 3180 3180 3179 3178 3178 3179 3179 3179 3180 3179 3179 3178 3178 3177 3176 3174 3173 3172 3172 3170 3168 3166 3164 3162 3161 3159 3158 3156 3153 3152 3150 3148 3146 3143 3140 3137 3134 3131 3129 3126 3123 3120 3117 3114 3111 3108 3104 3101 3097 3093
3165 3166 3167 3168 3168 3169 3169 3169 3168 3168 3168 3167 3166 3166 3167 3167 3167 3168 3168 3169 3169 3170 3171 3172 3172 3173 3174 3176 3177 3178 3179 3179 3179 3179 3179 3180 3180 3179 3178 3178 3178 3178 3179 3179 3179 3179 3179 3178 3178 3177 3176 3174 3173 3172 3172 3171 3168 3166 3164 3163 3161 3160 3158 3156 3153 3152 3150 3148 3145 3143 3140 3137 3134 3132 3129 3126 3123 3120 3117 3114 3111 3107 3104 3100 3097 3093
3165 3165 3166 3167 3167 3168 3168 3168 3167 3167 3167 3166 3166 3167 3167 3167 3167 3168 3169 3169 3169 3169 3170 3171 3171 3172 3173 3174 3176 3176 3177 3177 3177 3178 3179 3179 3179 3178 3177 3177 3178 3177 3178 3179 3179 3179 3178 3178 3177 3177 3175 3174 3173 3173 3172 3170 3168 3167 3165 3164 3162 3160 3158 3155 3153 3152 3150 3148 3145 3142 3139 3137 3135 3132 3129 3127 3124 3121 3118 3115 3111 3107 3104 3100 3096 3093
3165 3165 3165 3166 3167 3167 3167 3166 3166 3166 3165 3165 3165 3166 3166 3166 3167 3168 3168 3168 3169 3169 3169 3170 3171 3171 3172 3173 3174 3175 3175 3176 3177 3178 3178 3178 3177 3177 3177 3177 3178 3177 3177 3178 3178 3178 3178 3177 3177 3176 3175 3174 3173 3173 3172 3170 3168 3167 3165 3164 3162 3160 3157 3155 3154 3152 3150 3147 3145 3142 3139 3137 3135 3133 3130 3127 3125 3121 3118 3115 3111 3108 3104 3100 3096 3092
3164 3164 3165 3165 3165 3166 3166 3165 3164 3164 3163 3163 3163 3164 3165 3165 3166 3166 3167 3167 3168 3169 3170 3170 3170 3171 3172 3172 3172 3173 3175 3175 3176 3177 3178 3177 3176 3177 3178 3178 3178 3177 3177 3177 3178 3178 3177 3177 3176 3175 3175 3174 3173 3172 3171 3170 3169 3167 3166 3164 3162 3159 3157 3156 3154 3152 3150 3147 3145 3142 3140 3138 3135 3133 3130 3128 3125 3122 3118 3115 3111 3108 3104 3100 3096 3093
3164 3164 3164 3165 3164 3164 3163 3163 3162 3162 3162 3162 3162 3163 3164 3164 3165 3166 3166 3167 3167 3168 3169 3169 3170 3170 3171 3170 3170 3171 3173 3174 3175 3176 3177 3177 3176 3176 3178 3178 3179 3178 3176 3176 3177 3177 3176 3176 3175 3174 3173 3173 3173 3172 3171 3170 3169 3167 3166 3164 3161 3160 3158 3156 3154 3152 3150 3147 3145 3142 3140 3138 3136 3133 3131 3128 3125 3122 3119 3115 3112 3108 3105 3101 3097 3093
3164 3164 3164 3164 3163 3162 3161 3161 3161 3161 3161 3161 3161 3162 3163 3164 3165 3165 3166 3166 3167 3167 3168 3169 3169 3169 3169 3169 3169 3170 3171 3172 3173 3174 3176 3177 3176 3176 3178 3179 3179 3178 3176 3176 3176 3176 3176 3175 3175 3174 3173 3172 3172 3172 3171 3170 3169 3167 3165 3164 3162 3160 3158 3156 3154 3152 3149 3147 3145 3143 3141 3139 3136 3134 3131 3129 3126 3122 3119 3116 3113 3110 3106 3102 3098 3094
3164 3164 3163 3163 3162 3161 3160 3160 3160 3160 3160 3160 3160 3162 3163 3163 3164 3165 3165 3165 3165 3166 3167 3168 3167 3167 3168 3169 3169 3169 3170 3171 3172 3173 3175 3176 3175 3177 3179 3179 3178 3177 3175 3175 3176 3176 3175 3175 3174 3174 3173 3172 3172 3172 3171 3170 3169 3167 3166 3164 3162 3160 3158 3156 3154 3152 3150 3147 3146 3144 3142 3139 3137 3134 3132 3129 3126 3123 3120 3117 3114 3110 3107 3103 3099 3095
3163 3163 3163 3162 3161 3160 3161 3161 3160 3161 3160 3159 3160 3161 3162 3163 3163 3164 3165 3165 3165 3165 3166 3167 3166 3166 3168 3168 3168 3168 3169 3170 3171 3173 3174 3175 3175 3177 3178 3178 3177 3175 3175 3175 3175 3175 3175 3174 3174 3173 3173 3173 3172 3172 3171 3170 3169 3167 3166 3164 3162 3160 3158 3156 3154 3152 3150 3148 3146 3145 3142 3140 3137 3135 3133 3130 3127 3124 3121 3118 3115 3111 3107 3104 3100 3096
3162 3162 3162 3161 3160 3159 3160 3161 3160 3160 3159 3159 3160 3161 3162 3163 3163 3163 3164 3165 3165 3165 3166 3166 3166 3166 3167 3168 3168 3168 3169 3170 3172 3173 3174 3174 3175 3177 3177 3176 3175 3174 3174 3174 3174 3174 3174 3174 3174 3173 3173 3172 3172 3171 3171 3170 3168 3167 3165 3164 3162 3160 3158 3156 3154 3152 3150 3149 3147 3145 3143 3140 3138 3135 3133 3131 3128 3125 3122 3119 3116 3112 3108 3104 3101 3097
3160 3161 3161 3160 3160 3159 3159 3159 3159 3158 3158 3158 3159 3160 3161 3162 3162 3162 3162 3163 3164 3164 3165 3166 3166 3165 3166 3167 3167 3167 3169 3171 3173 3174 3174 3174 3175 3176 3176 3174 3173 3173 3174 3174 3174 3174 3174 3174 3173 3173 3172 3172 3171 3171 3170 3169 3168 3167 3165 3163 3162 3159 3158 3156 3154 3153 3151 3149 3148 3146 3143 3141 3138 3136 3134 3131 3129 3126 3123 3120 3116 3113 3109 3106 3102 3099
3159 3160 3160 3159 3159 3158 3158 3157 3157 3157 3157 3157 3158 3158 3159 3161 3161 3161 3161 3161 3162 3163 3163 3164 3165 3165 3166 3166 3165 3166 3168 3170 3171 3173 3173 3174 3174 3174 3173 3171 3172 3173 3173 3173 3173 3173 3173 3173 3173 3172 3172 3171 3171 3170 3170 3169 3168 3166 3165 3163 3161 3159 3158 3156 3155 3153 3152 3150 3148 3146 3144 3141 3139 3136 3134 3131 3129 3126 3123 3120 3117 3113 3110 3106 3103 3099
3158 3158 3159 3158 3158 3158 3158 3157 3157 3156 3155 3155 3156 3157 3158 3159 3160 3160 3159 3159 3160 3161 3162 3163 3163 3164 3165 3165 3164 3166 3168 3168 3169 3171 3172 3172 3172 3171 3170 3170 3172 3173 3173 3173 3173 3173 3173 3173 3172 3172 3172 3171 3171 3170 3169 3168 3167 3166 3164 3163 3161 3159 3158 3157 3155 3154 3152 3150 3149 3146 3144 3141 3139 3137 3135 3132 3129 3125 3123 3120 3116 3113 3110 3107 3103 3100
3157 3157 3158 3158 3157 3157 3158 3157 3156 3156 3155 3154 3155 3156 3157 3158 3159 3159 3158 3158 3158 3159 3161 3162 3162 3163 3163 3163 3163 3164 3165 3166 3167 3168 3169 3170 3169 3169 3169 3171 3171 3171 3172 3172 3172 3172 3172 3172 3172 3171 3171 3171 3170 3169 3168 3167 3167 3165 3164 3162 3161 3160 3158 3157 3155 3154 3152 3151 3149 3146 3144 3142 3140 3137 3135 3132 3129 3126 3123 3119 3116 3113 3110 3106 3103 3100
3155 3156 3156 3157 3157 3157 3157 3156 3156 3156 3155 3154 3154 3155 3156 3157 3158 3158 3158 3158 3158 3159 3160 3161 3161 3161 3162 3162 3162 3163 3164 3165 3165 3166 3167 3167 3167 3168 3169 3170 3170 3170 3171 3171 3171 3172 3172 3171 3171 3170 3170 3170 3169 3168 3167 3167 3166 3165 3164 3162 3161 3160 3158 3157 3156 3154 3152 3151 3149 3147 3144 3142 3140 3138 3135 3133 3130 3127 3124 3120 3117 3114 3110 3107 3104 3101
3154 3154 3155 3156 3156 3156 3156 3155 3155 3155 3154 3154 3154 3155 3156 3157 3157 3158 3158 3158 3159 3159 3159 3160 3160 3161 3161 3162 3162 3163 3164 3165 3165 3165 3165 3165 3165 3167 3168 3168 3169 3170 3170 3170 3170 3171 3170 3170 3170 3170 3169 3169 3168 3167 3167 3166 3165 3164 3163 3162 3161 3159 3158 3157 3156 3154 3152 3151 3149 3147 3145 3143 3141 3138 3136 3133 3131 3128 3125 3122 3119 3115 3112 3109 3106 3102
3152 3153 3154 3154 3154 3154 3154 3154 3154 3154 3153 3154 3154 3154 3155 3156 3157 3157 3158 3158 3159 3159 3159 3159 3160 3160 3160 3162 3163 3163 3164 3164 3164 3164 3164 3164 3165 3166 3167 3167 3168 3169 3169 3169 3169 3169 3169 3169 3169 3169 3168 3167 3167 3166 3165 3165 3164 3164 3163 3162 3160 3159 3158 3157 3156 3155 3153 3151 3149 3147 3145 3143 3141 3138 3136 3134 3131 3129 3127 3124 3121 3117 3114 3111 3108 3105
3151 3152 3152 3152 3153 3153 3153 3153 3153 3152 3152 3153 3153 3154 3155 3156 3156 3156 3157 3157 3158 3158 3158 3158 3159 3159 3160 3161 3161 3161 3162 3163 3164 3163 3163 3164 3165 3165 3166 3166 3167 3168 3168 3168 3168 3168 3168 3168 3168 3167 3167 3166 3166 3165 3164 3164 3163 3163 3162 3161 3160 3159 3158 3157 3156 3155 3153 3151 3149 3147 3145 3143 3141 3139 3137 3134 3132 3130 3128 3125 3123 3120 3116 3113 3110 3107
3149 3150 3151 3150 3151 3152 3152 3152 3151 3151 3151 3152 3153 3154 3154 3154 3155 3156 3157 3157 3157 3157 3157 3157 3158 3159 3160 3160 3159 3159 3160 3162 3162 3162 3163 3164 3164 3164 3165 3166 3166 3167 3167 3167 3167 3167 3167 3167 3167 3166 3166 3165 3165 3164 3163 3163 3163 3162 3162 3161 3160 3159 3158 3157 3156 3155 3153 3151 3149 3147 3145 3143 3141 3139 3137 3135 3133 3131 3128 3126 3124 3121 3118 3115 3112 3109
3147 3149 3149 3149 3150 3151 3151 3150 3150 3150 3150 3151 3152 3153 3153 3153 3154 3155 3156 3156 3156 3157 3157 3156 3157 3158 3158 3158 3157 3158 3159 3160 3160 3161 3162 3163 3163 3163 3164 3165 3165 3165 3166 3166 3166 3166 3166 3166 3166 3165 3164 3164 3164 3163 3163 3162 3162 3162 3161 3160 3160 3159 3158 3157 3156 3154 3153 3151 3149 3148 3146 3143 3141 3139 3138 3136 3133 3131 3129 3127 3124 3122 3119 3116 3113 3109
3146 3147 3148 3148 3149 3149 3149 3149 3149 3150 3150 3150 3151 3151 3152 3153 3154 3154 3155 3155 3155 3156 3156 3156 3156 3157 3157 3156 3156 3157 3158 3159 3159 3160 3161 3161 3162 3162 3163 3164 3164 3164 3165 3165 3165 3165 3165 3165 3164 3164 3163 3163 3163 3162 3162 3161 3161 3161 3160 3159 3159 3158 3157 3156 3155 3154 3152 3151 3149 3148 3146 3144 3142 3140 3138 3136 3133 3131 3129 3127 3125 3122 3119 3116 3113 3110
3145 3145 3147 3148 3148 3148 3148 3148 3148 3149 3149 3149 3149 3149 3150 3152 3153 3153 3154 3155 3154 3155 3155 3156 3156 3156 3156 3155 3156 3157 3157 3158 3158 3159 3160 3160 3161 3161 3162 3162 3163 3163 3164 3164 3164 3164 3164 3164 3163 3163 3162 3162 3162 3161 3161 3161 3160 3160 3159 3158 3157 3157 3156 3155 3154 3153 3152 3150 3149 3147 3145 3144 3142 3140 3137 3135 3133 3131 3130 3127 3125 3123 3120 3117 3114 3111
3143 3144 3145 3146 3147 3148 3148 3147 3147 3148 3148 3147 3148 3148 3148 3150 3152 3153 3153 3154 3154 3154 3155 3155 3155 3155 3155 3155 3156 3156 3156 3157 3157 3158 3159 3159 3160 3160 3161 3161 3162 3162 3162 3163 3163 3163 3163 3162 3162 3162 3161 3161 3161 3160 3160 3160 3159 3158 3158 3157 3156 3155 3155 3154 3153 3152 3151 3150 3148 3147 3145 3143 3142 3140 3138 3135 3133 3131 3129 3127 3125 3123 3120 3117 3114 3111
3142 3143 3144 3145 3146 3147 3147 3146 3146 3146 3147 3147 3147 3147 3147 3147 3149 3151 3152 3152 3153 3153 3154 3154 3154 3154 3153 3154 3154 3155 3155 3156 3156 3157 3157 3158 3159 3159 3160 3160 3161 3161 3161 3161 3162 3162 3161 3161 3161 3161 3160 3160 3160 3160 3159 3159 3158 3157 3156 3155 3154 3154 3153 3152 3151 3150 3149 3148 3147 3146 3144 3143 3141 3139 3138 3136 3133 3130 3128 3126 3124 3122 3119 3116 3113 3111
3141 3141 3142 3143 3144 3144 3144 3143 3144 3145 3145 3146 3147 3147 3146 3146 3147 3148 3149 3150 3151 3151 3152 3152 3153 3153 3152 3152 3153 3154 3154 3154 3155 3156 3156 3157 3157 3158 3158 3159 3159 3159 3160 3160 3160 3160 3160 3160 3160 3160 3159 3159 3159 3159 3158 3157 3157 3156 3155 3154 3153 3152 3151 3150 3150 3149 3147 3146 3145 3144 3143 3141 3140 3138 3137 3135 3133 3131 3129 3126 3124 3121 3119 3116 3114 3111
3139 3140 3141 3141 3142 3141 3141 3143 3143 3143 3143 3144 3145 3145 3145 3145 3146 3147 3148 3148 3149 3149 3150 3150 3151 3151 3151 3151 3152 3153 3153 3153 3154 3154 3155 3156 3156 3157 3157 3158 3158 3158 3158 3159 3159 3159 3159 3159 3159 3159 3158 3158 3158 3157 3157 3156 3155 3154 3154 3153 3152 3151 3150 3149 3148 3147 3146 3144 3143 3142 3141 3140 3138 3136 3135 3133 3132 3130 3129 3127 3125 3122 3119 3117 3114 3112
Wind_Speed
5 2 2 4 4 2 4 4 8 8 5 5 10 13 13 13 12 11 13 11 8 16 18 14 15 14 13 14 13 14 13 12 13 13 14 14 14 13 12 9 8 10 9 7 7 7 7 7 7 8 8 9 9 10 11 11 11 11 12 12 13 14 14 14 14 15 16 16 16 17 17 17 18 18 19 20 20 22 23 23 24 24 25 25 26 26
1 3 2 3 4 5 5 4 4 5 6 7 12 14 14 14 14 11 11 10 8 16 18 13 14 15 15 15 14 15 14 13 13 13 14 14 14 14 12 11 10 11 11 9 9 9 9 9 9 10 11 10 10 11 12 12 13 14 14 14 14 15 15 15 16 17 18 18 19 19 19 19 20 20 21 21 22 23 24 25 25 26 26 26 27 27
2 2 3 4 8 7 4 5 3 5 7 8 10 11 12 14 14 12 9 10 12 16 16 13 15 16 15 14 14 15 14 14 13 13 14 13 13 14 13 13 12 12 12 11 10 11 11 12 12 13 12 12 12 13 14 14 15 15 14 14 15 15 16 17 17 18 20 20 21 21 21 21 21 21 22 23 24 24 24 24 25 26 26 26 26 27
4 8 6 5 6 6 6 5 4 6 6 8 10 9 10 12 12 11 8 7 11 13 14 16 17 16 14 13 13 13 14 14 13 13 13 12 12 13 13 14 13 13 14 14 14 14 14 14 14 14 14 14 14 15 14 14 14 15 15 15 16 17 18 19 19 19 20 20 20 21 21 21 22 22 23 23 23 24 24 24 25 26 26 27 27 27
7 9 8 7 5 5 6 6 5 5 4 6 9 7 7 9 10 11 10 9 11 12 13 15 15 14 13 12 12 12 12 12 12 12 13 12 12 12 13 14 14 15 15 15 16 16 16 16 16 16 16 15 15 14 15 15 15 16 17 17 18 18 19 20 19 19 19 19 19 20 20 21 22 23 23 24 25 26 27 27 27 27 27 27 26 26
9 7 6 8 7 4 4 4 3 3 2 5 6 6 8 10 11 13 13 10 10 9 7 5 7 9 10 11 11 11 10 11 12 12 13 13 12 11 13 14 15 16 16 16 16 16 16 16 16 16 16 15 14 15 16 16 16 16 16 17 17 17 18 19 19 19 20 21 21 22 23 24 25 26 28 29 31 31 32 33 32 32 31 31 30 29
13 11 6 8 9 6 4 2 2 1 0 4 6 9 13 12 12 13 10 6 6 6 2 1 4 8 8 10 11 10 10 11 11 12 12 12 12 11 13 15 16 17 17 17 16 15 15 15 15 15 14 15 15 16 17 17 16 15 16 16 17 18 20 20 21 22 23 23 24 24 25 27 29 31 32 33 34 35 35 35 35 34 34 33 33 32
11 12 10 8 6 7 5 3 2 2 2 6 8 12 16 13 11 10 5 2 5 6 3 5 9 11 9 9 10 10 11 10 10 11 11 11 12 12 14 15 15 16 16 15 15 14 14 14 14 14 14 14 15 16 16 17 16 17 18 18 19 20 21 22 23 23 24 25 26 27 28 30 31 32 33 33 33 34 34 34 33 33 32 32 31 31
7 7 11 9 5 5 8 6 2 2 2 6 9 11 12 11 10 6 4 4 5 5 4 7 8 8 9 7 7 8 10 10 9 10 10 11 12 12 13 13 13 14 13 13 13 13 13 13 13 13 14 14 16 17 18 18 18 18 19 19 20 21 22 22 23 23 25 26 28 29 30 30 31 32 32 32 32 32 32 32 31 31 30 29 29 28
8 5 7 10 7 4 8 10 5 2 3 5 7 8 8 10 9 3 4 6 3 3 4 6 6 5 7 7 5 6 8 10 10 9 10 10 11 11 11 11 11 11 12 12 12 12 12 13 13 13 14 14 16 18 18 19 19 20 20 20 21 23 24 24 24 24 25 27 28 29 29 30 31 31 31 31 31 30 30 30 30 29 29 28 28 28
6 5 6 9 6 2 6 14 8 2 5 4 4 6 10 11 8 4 3 5 1 2 4 6 6 5 5 6 6 6 8 9 9 10 10 10 10 10 11 10 10 10 10 11 11 11 11 12 12 13 14 16 17 18 19 19 20 21 21 22 22 24 24 24 24 25 26 27 28 29 30 31 31 30 30 29 29 29 29 29 29 29 29 29 29 29
6 6 7 6 4 2 7 12 8 4 5 6 5 6 8 7 4 3 3 4 3 1 5 7 6 5 4 6 7 6 8 8 8 10 10 11 12 12 11 11 9 9 9 10 11 10 11 12 13 14 16 18 19 19 18 19 19 21 22 22 22 22 23 24 25 27 29 29 30 30 30 29 29 28 28 28 28 29 29 30 31 31 31 31 31 31
8 4 4 4 3 6 7 9 7 6 6 5 6 6 3 2 3 1 4 2 1 4 6 8 8 8 8 9 10 9 9 9 9 10 10 11 14 12 11 11 8 7 8 9 9 9 11 12 13 14 16 19 20 18 18 18 19 20 20 21 22 23 25 27 29 30 31 31 30 28 27 26 26 27 27 28 29 30 31 32 33 33 33 33 33 33
7 2 3 4 5 6 5 6 5 4 5 4 1 3 2 3 1 1 2 3 3 5 6 10 10 10 10 9 10 10 9 10 11 11 11 11 12 11 9 10 7 6 7 7 7 8 10 11 12 13 16 19 19 17 17 18 18 19 19 20 22 24 27 29 30 30 30 29 28 27 26 26 25 26 27 28 30 31 32 32 33 33 33 34 34 33
2 3 7 4 3 6 6 6 4 3 3 2 3 2 4 4 2 0 0 3 6 3 2 6 7 8 11 9 10 10 9 10 11 11 12 12 12 11 9 8 5 5 6 5 5 7 9 10 12 13 15 17 17 15 14 16 17 19 21 22 23 25 27 29 29 29 28 27 26 26 26 26 26 27 28 29 30 31 32 32 32 33 34 34 34 33
4 4 8 4 1 4 5 6 5 4 5 2 3 4 5 4 4 1 4 4 8 6 2 5 8 9 13 11 11 11 11 11 11 10 12 12 12 9 7 6 5 5 4 2 3 6 8 10 12 13 15 17 17 15 14 16 17 20 23 24 25 26 27 28 29 28 27 25 26 26 26 26 27 28 29 29 30 30 31 32 32 33 34 34 34 33
5 4 6 6 3 5 3 2 4 3 4 3 3 6 8 5 5 3 3 1 5 5 4 10 13 12 13 11 10 11 12 12 11 11 12 12 10 8 6 6 5 4 2 1 3 6 8 11 13 13 15 17 19 19 19 20 20 21 23 25 26 27 28 28 28 27 26 25 26 26 26 26 27 28 28 29 29 30 30 31 32 33 34 34 34 33
4 4 3 6 6 8 3 1 3 2 2 5 5 6 7 6 6 5 4 3 4 3 4 10 13 12 11 9 11 12 13 13 12 12 13 10 9 8 7 5 3 1 1 3 4 6 8 11 13 15 17 21 23 23 24 24 24 23 24 26 28 29 29 28 28 26 26 26 26 26 26 27 27 28 28 28 29 29 30 30 32 33 33 34 33 32
5 4 6 5 5 7 5 4 6 7 5 5 5 5 5 3 3 3 3 3 2 3 1 4 10 12 9 10 15 15 14 15 14 14 13 10 10 8 7 6 1 0 2 5 5 7 9 11 14 16 20 23 24 24 24 24 25 25 25 26 28 29 29 28 27 26 26 26 25 25 26 26 27 27 27 27 28 29 30 31 32 33 33 34 33 33
7 6 5 4 4 4 6 7 8 9 8 5 6 6 5 3 0 2 5 3 2 0 2 1 4 8 9 10 15 15 15 17 16 15 13 10 10 8 7 6 2 1 1 6 6 7 10 11 13 15 18 21 22 22 22 21 22 23 24 25 27 28 29 29 27 26 25 25 24 25 25 25 25 26 26 27 28 29 31 33 34 34 34 34 34 33
4 4 5 6 6 4 6 7 5 5 5 6 6 5 3 2 2 3 4 3 8 5 1 2 2 6 7 7 12 15 15 17 17 15 14 11 10 9 7 6 3 2 2 6 7 8 10 12 14 16 16 18 20 20 21 20 21 22 24 25 27 28 29 28 27 25 25 24 24 24 24 24 24 25 26 28 30 32 33 34 35 35 35 35 34 34
1 3 4 7 7 6 5 4 5 3 3 6 7 5 3 2 3 3 1 5 9 8 2 2 4 6 4 3 11 15 13 16 18 16 14 12 11 9 7 6 4 3 4 5 7 9 10 12 15 18 20 21 20 20 21 21 21 22 24 27 28 28 28 26 25 25 24 24 24 24 24 24 25 25 27 30 31 33 34 35 35 35 35 35 35 34
3 3 4 6 6 7 8 2 3 3 4 8 8 5 3 2 3 3 3 5 5 6 5 2 7 6 4 4 11 14 11 16 19 16 13 12 12 11 8 6 5 6 6 5 7 9 9 11 13 16 19 22 22 21 22 23 22 22 24 27 28 28 26 25 24 24 24 24 23 23 23 23 24 26 29 31 33 34 35 35 36 36 36 36 35 35
5 4 5 6 5 8 10 8 6 5 6 8 7 6 5 3 2 2 2 4 6 8 8 6 4 2 2 5 12 14 12 16 17 15 15 16 14 12 9 6 5 6 6 6 7 8 9 11 13 14 16 19 21 21 22 22 22 22 25 27 27 26 25 23 23 22 22 22 22 22 22 23 25 28 30 32 33 34 35 35 36 36 37 36 36 35
3 3 5 5 5 5 9 10 7 5 4 6 6 4 3 3 3 4 2 3 4 8 9 7 3 3 4 6 11 13 14 16 16 15 17 18 14 9 8 7 5 6 6 6 7 8 9 9 11 14 16 17 19 20 21 22 22 24 26 27 26 25 23 22 21 21 22 21 21 21 22 24 27 29 31 32 33 34 35 36 37 37 37 37 36 35
1 2 4 4 2 2 4 7 8 6 5 6 6 4 2 3 3 4 4 3 5 7 7 5 4 4 6 7 10 13 16 17 17 16 16 15 11 9 8 7 5 5 6 7 7 8 9 9 11 14 16 16 17 19 20 20 21 25 27 26 25 23 22 21 21 21 21 21 21 22 23 26 28 30 31 32 33 34 35 36 37 37 37 37 36 36
1 3 2 2 3 4 6 7 8 7 6 6 5 4 5 3 2 4 4 4 6 6 3 4 1 1 7 10 12 16 17 16 17 17 14 11 11 12 11 8 6 6 6 7 8 8 9 10 12 14 14 15 17 18 18 19 21 24 25 24 23 22 20 20 20 20 20 20 21 22 24 27 28 29 31 32 33 34 35 36 36 37 37 37 37 36
2 3 3 4 6 7 8 8 8 9 11 9 5 5 5 3 2 3 3 3 5 5 1 2 3 1 7 10 14 17 18 18 19 16 13 13 13 12 10 7 6 7 7 6 8 8 8 11 13 14 14 15 16 17 18 18 21 23 23 22 22 21 20 20 20 20 20 21 21 23 25 27 28 29 31 32 32 34 35 35 36 37 37 37 37 36
2 3 3 4 6 9 12 12 11 12 13 12 9 6 6 4 1 1 2 2 3 3 2 2 3 1 4 8 14 17 17 18 18 14 13 15 13 10 8 7 6 6 6 6 7 8 9 12 13 14 14 14 15 17 17 18 21 22 22 21 21 20 20 20 19 20 20 20 22 24 26 27 28 29 30 31 32 34 35 36 37 37 37 37 36 35
4 3 5 5 7 11 13 13 12 12 12 12 10 8 7 5 3 2 2 2 2 4 4 3 4 6 5 7 12 15 17 17 16 16 15 14 13 11 8 7 7 6 6 5 5 8 10 12 13 13 13 13 15 16 16 17 20 21 21 21 20 19 19 19 19 19 20 20 22 24 25 26 27 29 30 31 33 34 35 36 37 37 37 36 36 35
4 3 6 6 7 12 13 11 11 11 11 11 10 9 8 5 3 3 3 3 3 3 3 4 6 6 4 8 11 17 20 18 17 19 17 16 15 12 7 7 8 8 7 5 4 8 11 13 14 14 14 14 15 16 16 17 19 20 20 20 19 18 18 18 18 19 19 21 22 24 24 26 27 28 30 32 33 34 36 36 37 37 36 36 35 35
6 4 6 6 7 10 9 8 8 8 9 10 9 7 7 6 5 5 4 3 3 3 4 5 5 3 4 9 14 18 19 17 17 17 16 17 17 12 8 9 10 10 10 5 4 8 11 13 14 14 14 15 16 15 16 17 18 19 19 19 18 17 17 18 18 18 19 21 22 23 24 25 27 29 30 31 33 35 36 36 36 36 36 35 35 34
5 5 7 7 8 8 5 4 4 5 6 8 7 6 6 7 7 5 4 4 3 3 4 4 4 5 6 11 15 17 17 18 16 14 16 17 17 11 11 12 11 11 10 6 4 8 11 13 13 13 13 15 15 14 15 16 17 18 18 18 17 17 17 17 17 18 19 20 21 22 23 25 27 29 30 31 33 35 36 36 36 37 36 36 35 34
5 7 7 8 9 7 2 1 4 5 5 5 5 6 5 5 5 5 4 5 5 3 4 5 7 8 8 12 14 14 15 15 14 14 15 17 15 11 12 14 14 13 9 5 5 9 12 13 14 13 12 14 14 14 14 15 16 17 17 17 17 16 17 17 17 18 19 20 21 22 23 25 27 28 30 31 33 34 35 36 37 37 37 36 36 35
6 7 7 8 9 7 2 1 4 4 4 5 5 6 5 4 5 6 6 6 6 6 5 6 8 9 8 11 14 16 15 13 14 15 14 15 14 12 14 17 18 15 8 5 7 10 12 13 14 12 12 13 14 13 14 15 16 17 17 17 16 16 16 16 17 17 18 19 20 21 23 25 26 28 29 30 32 33 34 36 37 38 38 38 37 36
7 7 8 8 8 8 4 5 4 2 4 8 8 7 7 7 7 10 10 9 8 8 7 6 7 7 8 12 17 17 14 15 17 16 15 16 15 13 16 19 18 12 7 7 9 11 13 14 13 12 13 13 13 13 14 14 16 16 16 16 16 16 16 16 16 17 18 19 20 21 23 24 26 28 29 30 31 33 34 36 38 38 39 38 37 36
8 7 9 9 8 8 7 7 5 4 5 8 8 8 7 6 5 7 10 10 8 9 9 8 9 8 10 14 16 15 15 17 18 17 16 16 15 16 19 19 14 8 7 9 11 13 14 14 12 12 13 13 13 13 13 14 15 15 15 16 15 15 15 15 16 17 17 18 19 20 22 24 25 27 28 30 32 33 35 37 38 39 39 38 38 37
10 8 8 8 7 6 6 8 7 7 5 7 8 8 5 4 4 6 9 10 8 9 9 9 10 9 12 16 17 17 19 19 18 17 17 18 18 20 22 18 11 8 9 11 13 14 14 13 12 11 12 12 13 12 12 13 14 14 15 15 14 14 15 15 15 16 17 18 19 20 22 23 25 26 28 30 32 34 35 37 38 39 40 40 39 38
10 8 7 8 8 7 7 7 6 6 4 3 6 7 4 6 8 7 8 9 10 12 9 9 10 11 15 18 18 19 21 21 20 17 16 18 19 17 15 12 9 9 11 12 14 15 14 13 12 11 12 12 12 12 12 12 13 14 14 14 14 14 14 14 15 16 16 18 19 20 22 23 24 25 27 29 31 33 35 37 38 40 40 40 41 39
12 10 10 10 10 10 9 8 8 7 4 4 6 7 6 9 10 6 4 3 10 11 8 7 8 10 14 17 18 17 16 18 19 15 12 15 15 10 8 8 10 11 13 14 15 15 14 13 12 12 12 12 11 11 11 12 13 13 13 13 13 13 13 13 14 15 17 18 19 20 21 22 23 25 26 28 30 32 34 36 37 39 39 40 40 39
14 12 11 11 12 12 11 10 8 5 4 4 6 7 7 9 5 2 2 6 11 9 5 3 5 8 12 12 13 16 15 14 15 16 15 17 16 11 8 9 10 11 14 16 16 15 14 13 12 12 12 12 11 11 11 11 13 13 13 13 12 12 12 13 14 15 16 18 19 20 21 22 23 24 26 27 29 31 32 34 35 36 37 37 37 37
14 14 12 13 13 12 11 11 10 6 7 6 6 6 6 5 1 3 4 7 8 5 4 4 3 6 8 7 10 17 20 16 13 14 16 16 14 13 12 11 10 12 15 16 15 15 13 12 12 12 13 12 12 11 11 11 12 12 12 12 12 12 12 13 14 15 16 17 19 19 20 21 22 24 25 26 27 29 30 31 33 34 34 35 35 35
13 13 13 13 13 11 11 11 8 4 8 8 5 5 3 1 5 6 4 5 5 4 4 5 4 4 6 10 13 19 21 18 15 16 16 15 13 14 14 12 11 13 15 15 15 14 13 12 12 13 13 13 12 12 12 12 12 13 12 12 11 11 12 13 13 14 16 17 18 19 20 21 22 23 24 25 26 27 29 30 31 32 32 33 33 33
15 15 13 11 11 10 10 8 4 2 3 4 3 2 4 7 9 8 4 4 6 5 5 6 6 2 8 14 16 17 17 19 19 19 17 16 16 16 15 13 13 15 15 15 15 14 13 12 12 13 13 13 12 12 12 12 13 13 12 12 11 11 12 13 13 14 15 16 17 18 19 20 21 22 22 23 24 26 27 28 30 30 31 32 32 32
15 16 14 10 10 9 6 4 3 5 7 6 4 5 7 8 10 9 6 7 7 5 5 8 7 3 11 15 14 12 13 17 19 18 17 17 17 16 15 14 15 16 16 15 15 14 13 12 13 14 13 13 12 13 12 13 13 13 13 12 11 11 12 12 13 14 15 16 16 17 18 19 20 20 21 22 23 24 25 27 28 29 31 32 32 32
12 15 15 12 10 9 8 7 8 10 12 11 9 10 9 6 7 9 7 7 8 5 6 9 8 6 12 13 11 9 11 13 15 17 17 16 16 16 16 15 16 16 15 15 14 13 13 13 13 14 13 13 13 13 13 14 14 13 13 13 12 12 12 12 13 14 15 16 16 16 16 17 18 19 20 21 22 23 24 26 27 29 30 31 32 32
11 14 16 14 11 9 8 7 6 8 10 12 11 12 10 6 7 8 6 7 9 6 6 10 9 8 12 12 9 8 10 12 13 15 15 15 15 15 15 15 15 14 14 14 14 13 13 13 14 14 13 13 13 13 14 14 14 14 14 13 13 13 13 13 13 14 14 15 16 16 16 17 18 19 20 21 21 22 23 25 26 28 29 30 31 32
11 12 12 12 12 10 6 5 7 8 9 9 9 9 8 7 7 7 7 9 9 7 6 8 9 9 12 11 8 8 10 11 12 13 12 13 14 14 14 14 13 13 13 13 13 13 13 14 14 14 14 14 14 14 14 15 15 14 14 14 14 14 14 14 14 14 14 15 15 16 16 16 17 18 19 20 21 22 23 24 25 27 29 31 32 32
9 11 9 7 9 10 7 6 8 7 4 4 6 7 8 9 9 8 9 10 9 8 8 8 8 9 12 11 9 8 9 10 11 11 11 12 12 12 13 13 12 12 13 13 13 13 13 14 14 14 14 14 14 14 15 15 15 14 14 14 14 14 15 15 15 15 15 15 15 16 16 16 17 17 18 19 20 22 23 25 26 27 29 31 32 33
10 11 9 7 6 8 7 6 8 8 5 6 8 7 9 13 13 11 11 11 11 10 9 9 9 11 12 12 9 7 8 10 10 9 10 11 11 12 12 12 12 12 13 13 13 13 14 14 15 14 14 14 14 14 15 15 15 14 14 14 14 15 15 16 16 16 16 16 16 17 16 16 17 17 18 18 18 19 21 23 25 27 29 30 31 32
11 11 12 11 10 10 10 10 11 13 13 9 8 8 9 12 13 12 11 10 11 12 11 10 11 12 13 13 10 7 8 10 9 9 10 10 11 12 12 12 13 13 13 14 14 14 14 15 15 14 15 14 14 15 15 15 15 14 14 14 14 15 15 16 16 16 17 17 17 17 17 18 18 18 19 19 19 20 20 21 23 26 27 29 30 31
Wind_Direction
95 70 315 304 294 217 145 165 186 162 117 122 120 102 103 104 103 109 102 104 109 97 93 88 93 97 87 78 77 80 83 83 79 76 73 73 77 77 77 77 72 72 69 60 61 61 57 46 45 49 41 32 27 23 21 17 17 23 22 21 19 15 16 16 13 11 5 1 359 357 357 351 344 345 344 340 337 333 334 334 332 332 330 328 327 326
20 43 119 180 174 176 173 202 203 154 143 127 112 103 100 102 103 106 107 112 103 92 97 94 84 83 81 81 77 75 83 86 82 78 72 71 74 74 78 80 79 78 72 64 67 66 59 53 51 50 45 39 35 31 29 29 32 35 33 28 25 23 20 12 8 6 1 356 354 353 350 343 340 340 338 335 334 333 334 333 330 329 328 326 326 324
258 103 113 127 145 162 171 184 152 102 124 107 98 105 103 105 103 99 108 115 104 100 106 99 85 80 79 85 80 73 80 84 79 77 73 69 70 74 78 80 79 77 73 70 68 64 57 54 54 54 52 47 47 46 43 41 37 34 31 24 19 16 11 6 2 360 356 352 351 349 344 341 340 339 336 335 335 334 334 332 329 328 328 327 326 324
138 152 153 114 135 149 124 136 131 102 104 91 95 108 114 122 115 109 121 104 91 105 113 101 93 92 87 86 81 76 79 81 80 80 79 75 71 72 73 72 71 70 69 67 66 65 61 60 60 58 58 54 50 50 46 40 31 25 21 15 11 7 3 1 358 354 352 350 348 344 342 341 339 339 338 337 336 334 333 332 331 330 330 330 328 327
121 143 133 116 130 143 120 107 119 123 106 101 109 116 130 135 124 122 133 115 100 115 119 103 93 91 92 91 84 79 81 80 77 81 86 86 79 74 72 70 70 70 68 67 69 70 68 67 64 58 56 51 45 42 35 29 22 16 11 7 5 1 357 356 352 350 349 349 347 345 344 343 340 340 339 337 336 335 333 333 334 334 334 335 335 334
165 158 100 131 156 139 124 112 141 178 128 122 128 132 137 129 121 124 132 132 128 142 147 103 80 84 88 93 90 84 86 81 76 80 87 90 87 81 78 75 74 73 73 72 73 72 68 66 60 54 50 43 36 30 23 16 12 9 6 3 359 354 352 352 351 350 351 351 350 349 347 345 342 341 340 339 339 338 338 339 340 341 341 342 342 343
166 172 125 143 165 150 134 89 94 235 100 131 145 138 130 121 121 128 133 147 153 160 189 357 100 113 96 92 98 98 92 86 84 86 86 91 93 88 83 81 79 79 77 75 74 70 65 61 55 48 41 32 25 21 15 10 5 3 1 360 357 351 351 354 354 353 353 352 351 349 346 344 342 341 341 341 341 341 342 342 344 344 344 344 343 342
151 167 154 140 154 170 206 286 39 73 90 125 143 140 130 121 123 131 125 110 136 132 75 75 113 118 108 100 100 104 101 92 89 90 90 94 96 93 90 87 83 81 80 77 74 69 62 56 49 41 33 25 19 14 8 4 360 357 357 357 355 352 355 356 353 352 352 350 349 348 346 344 342 341 342 342 342 342 343 343 343 344 343 343 341 340
165 167 167 162 171 213 243 250 168 139 137 122 131 139 140 128 113 120 131 105 123 131 98 110 121 105 106 117 110 108 109 103 100 99 97 95 95 97 97 94 89 83 79 76 72 68 59 49 40 32 25 18 11 7 2 358 355 355 356 356 353 353 357 356 351 350 352 350 348 346 344 343 342 342 343 344 344 343 343 343 343 343 343 342 342 341
166 162 186 189 193 251 239 204 172 100 125 128 125 121 124 123 105 78 140 129 146 186 138 139 149 118 113 136 143 127 120 118 117 114 108 103 102 99 95 94 92 85 78 73 69 64 53 40 31 24 17 12 6 1 358 354 353 355 359 358 355 355 356 354 351 351 351 348 345 344 344 344 345 346 346 346 345 344 343 343 344 344 344 345 345 344
147 154 174 180 188 276 199 189 189 119 117 116 130 103 73 86 87 31 101 133 233 212 150 146 152 141 127 146 156 143 138 138 130 125 121 114 108 100 96 96 90 85 82 72 66 58 44 31 22 17 11 7 3 359 357 356 355 357 358 359 357 356 353 350 350 349 348 348 347 347 348 348 348 347 346 344 344 344 344 346 347 348 348 349 349 349
163 176 169 167 210 209 168 181 194 189 136 82 73 95 67 52 23 360 145 184 260 207 156 144 131 109 112 144 146 132 137 145 136 131 130 122 118 114 110 108 97 90 84 67 59 48 34 23 15 12 9 4 1 359 359 360 359 358 357 357 356 353 350 349 350 350 349 350 350 351 351 349 348 346 345 345 345 347 349 350 352 352 353 353 354 354
160 165 152 143 208 196 187 192 186 187 175 119 70 79 96 247 271 146 153 152 159 195 177 143 118 93 100 130 135 130 136 142 138 134 133 128 126 126 119 114 107 96 78 59 53 40 25 17 11 9 6 3 1 1 2 2 0 359 356 355 354 353 352 352 352 351 350 350 350 351 351 350 349 348 348 349 350 352 353 354 354 354 355 355 355 356
158 166 179 192 212 201 217 212 195 210 198 182 93 79 134 208 199 94 167 116 124 199 172 132 118 101 105 122 134 139 139 138 142 140 136 132 130 129 120 113 108 92 70 53 45 28 15 11 7 3 2 2 1 0 2 1 359 358 355 355 357 356 354 351 351 350 349 349 350 351 352 352 352 353 354 354 355 356 356 356 356 355 356 355 355 355
180 194 188 201 189 181 203 191 198 236 187 230 286 203 199 199 177 324 357 93 109 153 162 126 127 127 132 140 143 142 132 128 140 142 137 135 135 135 128 116 101 79 69 57 33 10 2 2 359 355 354 357 357 358 1 0 0 359 356 357 358 357 354 351 350 350 349 350 352 354 355 355 355 357 358 358 358 358 357 357 357 356 356 355 354 353
295 242 185 184 99 176 201 180 193 203 164 210 287 216 220 217 199 232 2 44 106 131 177 120 118 128 134 141 146 142 139 139 143 144 140 138 139 141 133 119 105 87 78 56 6 349 348 351 350 350 347 349 353 356 359 1 3 5 1 358 356 354 353 351 350 351 352 354 356 357 356 357 358 359 359 360 359 359 358 358 358 357 356 355 353 352
278 285 177 182 209 204 220 187 199 198 162 199 250 238 252 261 242 262 311 294 118 125 160 128 123 131 134 142 155 151 150 149 148 149 146 144 145 143 131 123 119 107 99 326 325 335 341 342 342 343 343 348 355 359 1 1 2 6 4 357 353 352 352 352 352 353 356 358 358 358 357 358 360 0 0 0 360 359 359 359 359 358 357 354 352 351
246 301 222 210 222 208 220 281 199 210 204 192 208 238 248 257 277 309 305 224 128 114 165 142 136 144 143 149 164 168 165 160 160 157 154 154 150 141 136 140 134 123 199 282 309 327 335 340 340 342 348 355 0 1 2 0 357 0 3 358 351 349 351 353 354 356 358 360 359 357 358 359 0 0 0 1 0 360 360 0 0 359 357 354 351 350
170 227 255 235 223 196 199 239 220 216 218 207 227 240 223 233 291 309 286 283 94 112 172 132 132 148 166 173 171 177 176 168 169 166 163 162 154 148 153 159 158 76 243 286 312 331 337 341 342 348 358 2 2 1 1 358 354 355 358 355 350 347 350 354 356 359 0 360 358 357 359 0 360 360 0 1 1 1 1 2 2 1 358 354 351 349
166 214 260 239 228 187 193 231 226 207 203 215 252 254 220 190 68 230 235 281 339 122 161 127 136 158 182 184 175 179 179 176 178 173 173 171 159 158 155 153 148 118 262 304 329 342 339 341 343 353 4 5 0 357 357 355 352 352 353 351 349 349 352 355 357 359 360 358 358 359 360 360 360 0 1 2 2 3 4 4 3 1 358 355 352 349
174 214 259 255 243 218 213 224 223 206 199 210 238 268 249 210 313 279 236 301 325 325 132 158 175 163 170 176 178 183 181 179 179 175 180 180 163 159 157 153 154 160 237 305 334 341 337 340 342 347 356 2 2 355 351 353 354 352 350 350 351 353 354 355 356 357 358 358 358 359 360 360 0 2 3 3 4 5 5 4 3 1 359 355 352 348
229 191 251 266 240 243 263 216 184 187 194 224 248 286 298 259 284 272 294 353 331 320 314 159 148 146 132 145 181 189 183 176 178 178 183 184 169 164 173 175 182 224 259 301 333 336 338 345 348 350 350 354 359 354 348 352 355 352 350 351 354 355 355 354 354 356 357 358 359 359 359 0 1 3 5 6 6 6 4 4 2 0 358 355 352 349
293 204 229 262 247 267 296 288 189 226 252 257 268 287 298 306 299 284 344 351 327 306 310 121 130 125 80 105 167 180 176 174 182 185 181 184 179 174 183 190 213 264 292 320 331 332 338 344 349 352 349 347 350 352 349 350 352 351 351 353 355 355 354 354 354 355 356 357 358 358 359 1 3 6 8 8 7 6 4 3 2 0 358 356 353 350
272 247 248 276 289 281 283 279 249 234 257 270 272 278 282 287 315 21 2 320 332 344 357 42 94 125 105 141 162 168 170 172 182 187 180 181 184 182 186 194 228 272 305 323 321 327 336 341 341 343 346 344 345 349 348 347 347 350 353 355 355 354 353 353 354 355 356 357 357 358 0 3 7 9 10 9 7 5 3 3 1 360 359 356 353 350
252 257 286 311 337 312 304 306 285 242 251 274 272 265 270 281 312 26 21 306 355 7 15 47 103 165 151 162 165 167 168 166 176 189 186 191 199 190 186 201 242 279 302 310 314 323 329 334 332 334 342 344 343 347 346 344 346 351 354 354 354 353 352 352 355 356 357 357 357 0 4 7 10 12 10 9 7 5 3 3 2 360 359 357 354 351
250 267 300 325 350 300 306 307 297 299 302 293 291 278 258 291 323 12 356 353 30 14 18 66 124 153 151 165 165 167 169 167 178 188 187 197 200 178 186 217 248 272 286 295 305 314 318 322 323 329 340 342 343 346 343 343 348 351 353 352 351 352 351 353 357 357 357 358 360 4 8 11 13 12 11 10 8 6 4 3 2 0 359 357 354 351
227 246 260 272 237 243 274 275 267 283 292 291 309 301 276 289 26 20 355 25 32 10 53 93 48 160 165 173 172 174 176 177 186 186 180 185 182 182 207 229 236 247 268 287 299 307 312 313 317 327 338 342 344 344 340 344 351 351 350 349 349 350 352 355 358 358 358 360 2 7 11 13 14 12 11 11 8 7 6 4 3 1 0 358 356 353
265 261 254 265 255 257 280 276 245 245 259 266 289 308 288 278 77 24 351 23 16 357 101 94 17 148 174 183 186 186 183 183 189 186 177 175 178 196 221 224 218 236 249 268 289 302 304 305 313 327 339 344 345 341 340 347 351 350 349 348 349 351 354 358 359 359 360 2 5 10 13 14 14 13 12 11 9 8 7 6 5 4 2 0 357 355
231 266 279 277 272 271 273 270 254 248 255 262 275 290 284 275 260 323 314 335 7 356 343 15 14 311 194 186 191 194 193 193 194 190 180 181 188 206 211 192 197 227 241 254 280 294 297 303 316 331 340 344 343 341 343 348 350 348 347 348 350 353 356 359 359 359 1 4 8 12 14 14 14 14 13 12 11 10 9 8 7 6 5 2 359 358
233 284 310 296 283 281 274 267 262 256 254 259 266 266 265 268 259 252 299 328 342 341 331 317 307 302 265 217 205 199 199 199 192 187 183 185 202 214 195 178 194 223 241 249 274 291 296 306 319 331 339 344 344 341 343 348 348 347 347 349 352 354 357 359 360 1 3 6 11 14 14 15 14 14 14 13 12 12 11 10 9 8 7 4 1 0
253 296 317 301 280 279 273 260 256 255 253 257 259 259 263 268 264 266 292 314 317 329 330 303 298 302 257 220 207 193 198 202 193 190 183 179 203 219 189 175 197 220 239 252 279 291 300 312 323 334 342 344 344 342 342 346 346 346 349 352 353 354 357 360 1 3 5 9 13 14 14 15 15 15 15 14 13 13 13 12 11 11 10 7 4 3
264 290 303 285 272 282 277 253 251 259 257 256 255 259 264 262 274 293 286 279 285 285 305 311 294 272 174 188 197 196 204 212 204 192 175 179 207 219 184 182 201 217 235 258 286 290 302 316 325 337 342 341 342 341 341 344 345 347 351 352 353 355 358 1 3 5 7 10 13 14 14 15 16 16 16 14 14 15 15 14 13 13 13 11 8 7
253 274 283 277 278 286 277 251 283 299 277 261 250 258 279 269 261 271 267 266 271 257 279 288 241 215 176 187 206 212 215 220 211 185 171 188 208 201 179 191 203 217 238 264 282 289 306 318 326 336 339 337 337 337 338 340 344 349 352 352 354 357 0 3 5 6 9 11 12 13 14 15 17 17 16 15 16 15 15 15 14 15 15 14 12 11
237 255 267 276 280 280 257 248 302 296 275 266 238 238 282 294 264 265 275 274 269 243 248 249 236 233 208 195 208 219 220 217 202 180 180 196 199 181 182 199 210 226 252 285 289 295 310 318 323 332 333 332 332 332 334 339 344 350 353 353 355 359 2 4 6 8 10 11 12 13 14 16 18 17 16 16 17 16 15 15 16 16 17 17 16 15
235 249 267 277 270 265 235 225 266 253 242 264 253 232 246 271 267 268 268 266 265 251 240 236 233 234 217 196 199 209 208 191 180 182 189 199 200 191 194 210 226 241 264 292 291 299 309 314 321 328 328 328 329 329 332 340 346 351 353 354 357 1 4 4 7 9 9 10 12 13 15 17 18 17 17 16 16 16 15 15 16 17 18 18 19 18
227 244 271 279 268 264 251 228 236 247 250 262 270 263 252 258 274 274 267 266 261 246 233 217 211 210 194 187 196 204 195 174 175 186 191 199 209 205 204 221 238 252 272 286 287 296 305 310 318 321 324 327 327 327 333 341 347 351 352 355 359 2 4 5 7 9 8 9 12 13 16 18 17 17 16 15 14 15 15 15 16 17 18 19 21 21
217 235 256 260 259 263 266 258 256 275 256 237 251 271 265 257 274 276 274 274 253 230 222 205 199 195 180 186 197 195 179 173 179 185 190 198 203 204 215 233 248 260 272 278 284 294 301 307 314 318 322 326 324 324 331 339 346 351 352 355 360 3 4 5 8 8 8 9 11 13 16 18 17 17 15 13 12 13 14 15 16 17 17 18 20 22
219 230 238 248 250 250 277 288 278 281 266 213 228 264 273 272 289 285 282 275 232 206 203 194 197 194 179 183 186 174 171 180 186 187 192 196 199 210 227 241 252 260 266 273 283 293 299 303 310 315 318 320 318 319 327 336 346 351 352 355 1 3 4 6 7 7 8 9 11 13 16 17 17 17 15 12 12 12 13 14 15 16 16 16 19 22
222 226 226 247 257 251 265 276 270 283 290 214 245 271 281 313 325 317 292 265 210 194 189 187 202 200 184 188 192 182 178 184 189 191 192 198 211 231 245 250 254 260 266 274 283 290 297 300 304 310 312 314 315 317 325 336 344 350 352 355 360 3 4 6 6 5 7 8 10 13 14 16 16 15 14 14 13 13 13 13 14 15 15 15 16 19
225 225 225 236 250 256 258 263 271 275 239 219 268 285 292 317 328 315 287 204 173 185 194 195 211 204 189 197 205 199 190 191 200 210 210 214 235 268 280 267 266 268 270 278 284 289 295 298 301 307 308 309 312 316 323 334 343 348 350 352 358 2 3 4 4 4 5 7 9 12 13 14 15 14 14 15 14 14 14 14 14 14 14 15 15 16
222 222 227 232 242 250 246 246 261 260 195 217 267 278 297 322 329 256 211 147 157 186 220 237 235 214 203 204 199 196 199 203 215 230 233 237 255 277 282 275 278 276 275 280 285 288 293 296 298 302 303 307 313 317 322 332 340 345 346 349 356 358 359 2 4 2 2 4 8 11 11 12 13 13 14 14 14 15 15 14 14 14 15 15 15 15
217 217 225 231 240 249 249 250 253 223 176 182 223 250 290 328 16 150 149 154 171 211 264 293 273 226 211 192 179 195 207 210 218 233 239 247 260 267 270 278 283 279 278 281 284 287 291 293 296 300 304 310 315 316 320 329 336 339 342 346 352 353 355 360 1 359 360 1 5 8 9 9 11 12 13 13 13 15 16 15 15 15 15 15 15 15
214 214 217 222 232 242 249 258 265 219 179 180 213 258 290 171 186 187 175 183 201 231 267 281 278 236 185 166 181 204 213 215 222 233 239 247 253 255 262 272 276 277 280 281 283 286 289 291 297 301 306 311 314 316 320 326 330 333 336 341 346 348 350 355 356 356 358 359 1 4 5 7 9 11 11 11 12 14 14 14 14 15 14 14 15 16
219 218 217 219 228 236 243 251 260 235 198 184 184 221 209 204 210 209 200 220 231 237 247 257 272 239 165 177 202 217 217 218 226 232 238 247 251 254 261 267 270 275 280 282 283 285 286 291 296 299 304 310 314 316 320 323 324 326 329 334 340 343 345 350 351 351 354 357 360 1 1 4 7 8 8 9 10 12 13 12 13 13 13 13 15 17
216 212 216 222 224 230 249 264 242 240 249 241 201 203 230 238 226 214 206 215 228 236 227 236 260 209 173 195 226 235 225 228 233 236 242 250 255 260 262 263 267 273 279 281 280 282 287 292 295 298 304 310 313 316 319 319 318 320 323 328 334 337 340 344 345 346 349 353 357 359 360 2 3 4 5 7 8 10 11 11 11 12 12 13 13 15
215 215 221 225 227 236 252 260 250 245 251 255 238 228 245 259 232 225 221 213 226 235 207 216 238 205 191 217 247 243 232 237 238 238 246 251 256 260 261 261 268 273 276 277 279 284 289 292 295 300 304 309 313 315 316 315 313 314 318 323 327 331 335 338 340 342 344 347 351 354 357 360 1 0 2 4 6 7 8 9 9 10 11 12 13 14
218 221 226 227 230 241 247 241 228 223 238 256 254 240 242 251 242 235 211 201 228 244 206 212 231 220 216 239 254 233 230 237 237 240 248 252 256 260 260 264 270 271 273 276 280 286 291 292 295 300 303 308 313 313 313 313 310 310 315 319 322 327 330 333 336 338 340 344 347 349 353 357 359 359 0 2 3 5 6 7 7 8 10 11 13 14
202 205 219 225 228 236 239 218 203 209 229 247 255 256 257 252 248 242 215 212 238 257 232 230 241 232 233 248 252 235 233 235 235 242 247 250 256 260 262 267 271 271 274 279 282 287 291 292 294 299 302 307 310 311 311 311 308 309 313 316 320 324 326 329 332 335 338 341 344 346 350 354 357 359 0 0 1 2 4 5 5 6 8 10 11 13
198 203 206 206 221 237 243 223 211 226 253 238 225 249 261 243 230 231 233 238 253 267 264 264 259 245 247 256 254 240 236 235 238 243 246 250 259 264 267 273 275 276 280 283 285 288 290 291 294 298 302 305 307 309 309 308 307 309 312 314 318 322 323 326 329 332 335 339 342 345 348 351 354 358 360 1 2 1 1 3 4 6 8 9 9 10
220 220 206 188 213 233 223 185 176 179 169 164 178 201 234 237 226 218 227 241 249 254 265 275 268 256 256 258 253 242 236 238 242 246 249 256 264 268 274 278 280 282 285 286 287 289 289 290 294 297 299 302 305 306 307 307 307 309 311 314 317 319 321 324 327 330 334 337 340 342 345 349 353 356 358 360 3 3 2 2 3 5 7 8 8 9
225 225 221 219 230 232 218 206 203 199 194 194 199 206 230 247 242 225 219 231 241 247 256 266 266 262 258 257 256 249 242 243 247 252 258 265 270 274 279 281 282 285 287 287 289 290 289 290 293 295 297 301 302 304 306 306 307 308 311 314 317 318 320 322 325 329 333 336 338 340 343 347 351 354 355 357 359 2 4 4 4 5 7 7 7 8